Flag for U.S.A. Weather past 2 weeks in Fremont, California, U.S.A.

Now
59 °F

Clear.


Feels Like: 59 °F
Forecast: 44 / 69 °F
Wind: No wind

Location: Moffett Field

Current Time: Mar 4, 2015 at 8:18:47 PM

Latest Report: Mar 4, 2015 at 6:56 PM


Visibility: 10 mi

Pressure: 30.17 "Hg

Humidity: 60%

Dew point: 45 °F

Location of FremontLocation

Historic Weather in Fremont — Graph

°F

Fremont temperature yesterday

Maximum temperature yesterday: 64 °F (at 1:56 PM)
Minimum temperature yesterday: 42 °F (at 3:56 AM)
Average temperature yesterday: 53 °F

Past Weeks' High & Low Weather Summary

 TemperatureHumidityPressure
High71 °F (Feb 21, 2:56 PM)97% (Mar 1, 3:56 AM)30.38 "Hg (Mar 1, 3:56 AM)
Low38 °F (Feb 24, 6:56 AM)17% (Feb 24, 11:56 AM)29.75 "Hg (Feb 28, 3:56 AM)
Average55 °F66%30.03 "Hg
* Reported Feb 17 5:56 PM — Mar 4 5:56 PM, Fremont, Weather by CustomWeather, © 2015

Note: Actual official high and low records may vary slightly from our data, if they occured in-between our weather recording intervals... More about our weather records

Advertising

Fremont weather history for previous 24 hours

 ConditionsComfort  
Time TempWeatherWind HumidityBarometerVisibility
5:56 PM
Wed, Mar 4
63 °FSunny.5 mph34%30.16 "Hg10 mi
4:56 PM65 °FSunny.5 mph33%30.15 "Hg10 mi
3:56 PM66 °FSunny.6 mph28%30.14 "Hg10 mi
2:56 PM66 °FSunny.7 mph29%30.14 "Hg10 mi
1:56 PM65 °FSunny.8 mph32%30.14 "Hg10 mi
12:56 PM65 °FSunny.7 mph36%30.15 "Hg10 mi
11:56 AM64 °FSunny.6 mph41%30.16 "Hg10 mi
10:56 AM61 °FSunny.3 mph58%30.16 "Hg10 mi
9:56 AM59 °FSunny.No wind54%30.16 "Hg10 mi
8:56 AM53 °FSunny.No wind59%30.15 "Hg10 mi
7:56 AM48 °FSunny.3 mph80%30.13 "Hg10 mi
6:56 AM43 °FSunny.No wind76%30.10 "Hg10 mi
5:56 AM44 °FClear.No wind79%30.09 "Hg10 mi
4:56 AM45 °FClear.No wind80%30.07 "Hg10 mi
3:56 AM44 °FClear.No wind82%30.06 "Hg10 mi
2:56 AM45 °FClear.No wind86%30.05 "Hg10 mi
1:56 AM44 °FClear.3 mph85%30.06 "Hg10 mi
12:56 AM48 °FClear.No wind80%30.06 "Hg10 mi
11:56 PM
Tue, Mar 3
50 °FClear.3 mph83%30.05 "Hg10 mi
10:56 PM49 °FClear.No wind86%30.04 "Hg10 mi
9:56 PM53 °FClear.No wind80%30.04 "Hg10 mi
8:56 PM53 °FClear.9 mph83%30.02 "Hg10 mi
Weather by CustomWeather, © 2015

See weather overviewHow to use our weather pages